User: anonymous   Login
Location: Unspecified
(0.0000°N, 0.0000°E)
Time: 20:06:29
(UTC+00:00)
Language:

A-11 Canister half - Orbit

View from above orbital plane
View from above orbital plane
View from above satellite
View from above satellite

Ground track
Ground track

The orbit data is extracted from the following two-line orbital elements,

1    51U 60009C   18049.50045374 -.00000137 +00000-0 -50335-3 0  9993
2    51 047.2127 096.9453 0106310 156.7264 203.8387 12.18268937560468
Epoch (UTC): 18 February 2018 12:00:39
Eccentricity: 0.0106310
inclination: 47.2127°
perigee height: 1515 km
apogee height: 1685 km
right ascension of ascending node: 96.9453°
argument of perigee: 156.7264°
revolutions per day: 12.18268937
mean anomaly at epoch: 203.8387°
orbit number at epoch: 56046

The dashed part of the orbit path shows where the satellite is in the earth's shadow,  

DLR